Location: Buckenweiler
(49.0667°N, 10.2500°E)
Time: 02:18:47
(UTC+00:00)

Cosmos 2278 Rocket - Pass Details

Date: 18 January 2026
Orbit: 839 x 846 km, 71.0° (Epoch: 6 February)

Event Time Altitude Azimuth Distance (km) Brightness Sun altitude
Exits shadow 04:14:31 14° 186° (S) 2,166 4.2 -27.5°
Maximum altitude 04:19:12 56° 112° (ESE) 997 2.8 -26.7°
Drops below altitude 10° 04:24:44 10° 35° (NE) 2,471 5.0 -25.8°
Sets 04:27:13 0° 32° (NNE) 3,411 5.7 -25.4°
